Tacoma, WA
on Friday, January 25, 2013

Friday
Previous Day Next Day
Daily Summary
 ActualAverage (KSEA)Record (KSEA)
Temperature
Mean Temperature °F 43°F  
Max Temperature 52°F 48°F 58°F (1986)
Min Temperature 32°F 37°F 7°F (1950)
Degree Days
Heating Degree Days 23 22  
Month to date heating degree days 578  
Since 1 July heating degree days 2516  
Cooling Degree Days 0 0  
Month to date cooling degree days 0  
Year to date cooling degree days 0  
Moisture
Dew Point 41°F   
Average Humidity 96    
Maximum Humidity 100    
Minimum Humidity 76    
Precipitation
Precipitation 0.10 in 0.17 in 0.93 in (1993)
Month to date precipitation 4.62  
Year to date precipitation 4.62  
Snow
Snow 0.00 in in 7.90 in (1972)
Month to date snowfall  
Since 1 July snowfall  
Snow Depth in   
Wind
Wind Speed 2 mph   
Max Wind Speed 10 mph   
Max Gust Speed mph   
Visibility 6 miles   
Events Fog , Rain   

Key: T is trace of precipitation, MM is missing value
Source: NWS Daily Summary
Time(PST)TemperatureDew PointHumidity Pressure Visibility Wind DirectionWind SpeedGust SpeedPrecipitationEvents Conditions
12:01 AM 41.0°F 41.0°F 100% 30.06 in 10.0 miles Calm Calm - N/A Rain Light Rain
12:51 AM 41.0°F 41.0°F 100% 30.05 in 8.0 miles ESE 1.2 mph - N/A   Overcast
12:58 AM 40.3°F 40.3°F 100% 30.07 in 8.0 miles ESE 1.2 mph - 0.02 in   Overcast
1:06 AM 41.0°F 41.0°F 100% 30.05 in 6.0 miles SE 1.2 mph - N/A Rain Light Rain
1:19 AM 41.0°F 41.0°F 100% 30.04 in 6.0 miles SSE 2.3 mph - N/A   Overcast
1:41 AM 41.0°F 41.0°F 100% 30.04 in 7.0 miles Calm Calm - N/A   Light Drizzle
1:55 AM 41.0°F 41.0°F 100% 30.05 in 9.0 miles Calm Calm - N/A   Overcast
1:58 AM 40.5°F 40.5°F 100% 30.06 in 9.0 miles Calm Calm - 0.00 in   Overcast
2:58 AM 40.6°F 40.6°F 100% 30.07 in 6.0 miles SSE 4.6 mph - N/A   Overcast
3:05 AM 41.0°F 41.0°F 100% 30.05 in 7.0 miles Calm Calm - N/A Rain Light Rain
3:25 AM 41.0°F 41.0°F 100% 30.05 in 10.0 miles SE 1.2 mph - N/A   Overcast
3:45 AM 41.0°F 41.0°F 100% 30.04 in 10.0 miles SE 1.2 mph - N/A   Overcast
3:58 AM 41.7°F 41.7°F 100% 30.06 in 10.0 miles Calm Calm - 0.01 in   Overcast
4:35 AM 41.0°F 41.0°F 100% 30.04 in 10.0 miles Calm Calm - N/A Rain Light Rain
4:45 AM 42.8°F 42.8°F 100% 30.04 in 10.0 miles SSE 2.3 mph - N/A Rain Light Rain
4:55 AM 41.0°F 41.0°F 100% 30.04 in 7.0 miles SE 2.3 mph - N/A   Overcast
4:58 AM 41.4°F 41.4°F 100% 30.06 in 7.0 miles SE 2.3 mph - 0.00 in   Overcast
5:18 AM 42.8°F 42.8°F 100% 30.04 in 10.0 miles SE 3.5 mph - N/A   Overcast
5:53 AM 42.8°F 42.8°F 100% 30.04 in 10.0 miles Calm Calm - N/A   Overcast
5:58 AM 42.6°F 42.6°F 100% 30.06 in 10.0 miles North 1.2 mph - N/A   Overcast
6:58 AM 43.9°F 43.9°F 100% 30.07 in 10.0 miles Calm Calm - N/A   Overcast
7:58 AM 42.8°F 42.8°F 100% 30.07 in 10.0 miles Calm Calm - N/A   Overcast
8:48 AM 42.8°F 42.8°F 100% 30.05 in 2.0 miles SE 2.3 mph - N/A   Mostly Cloudy
8:53 AM 42.8°F 42.8°F 100% 30.05 in 0.8 miles SE 2.3 mph - N/A   Mostly Cloudy
8:58 AM 42.4°F 42.4°F 100% 30.07 in 0.5 miles SE 2.3 mph - N/A Fog Fog
9:03 AM 41.0°F 41.0°F 100% 30.05 in 0.2 miles ESE 2.3 mph - N/A Fog Fog
9:13 AM 41.0°F 41.0°F 100% 30.05 in 0.5 miles Calm Calm - N/A Fog Fog
9:18 AM 42.8°F 42.8°F 100% 30.05 in 0.8 miles SE 2.3 mph - N/A   Overcast
9:23 AM 42.8°F 42.8°F 100% 30.05 in 2.0 miles SE 2.3 mph - N/A   Overcast
9:28 AM 44.6°F 44.6°F 100% 30.05 in 7.0 miles Calm Calm - N/A   Overcast
9:48 AM 44.6°F 44.6°F 100% 30.05 in 10.0 miles SE 2.3 mph - N/A   Overcast
9:58 AM 45.7°F 45.7°F 100% 30.07 in 10.0 miles SE 2.3 mph - N/A   Mostly Cloudy
10:38 AM 50.0°F 48.2°F 94% 30.05 in 10.0 miles South 4.6 mph - N/A   Scattered Clouds
10:58 AM 49.5°F 48.2°F 95% 30.07 in 10.0 miles SSW 6.9 mph - N/A   Partly Cloudy
11:38 AM 51.8°F 46.4°F 82% 30.03 in 10.0 miles SSW 8.1 mph - N/A   Mostly Cloudy
11:58 AM 50.2°F 46.4°F 87% 30.04 in 10.0 miles West 10.4 mph - N/A   Mostly Cloudy
12:58 PM 52.5°F 45.5°F 77% 30.02 in 10.0 miles WSW 8.1 mph - N/A   Mostly Cloudy
1:13 PM 51.8°F 44.6°F 76% 29.99 in 10.0 miles SSW 10.4 mph - N/A   Overcast
1:18 PM 51.8°F 44.6°F 76% 29.99 in 10.0 miles SSW 8.1 mph - N/A   Overcast
1:58 PM 50.9°F 44.1°F 77% 30.00 in 10.0 miles WSW 6.9 mph - N/A   Overcast
2:38 PM 50.0°F 44.6°F 82% 29.97 in 10.0 miles West 5.8 mph - N/A   Overcast
2:43 PM 50.0°F 44.6°F 82% 29.97 in 10.0 miles West 6.9 mph - N/A   Overcast
2:58 PM 50.9°F 43.7°F 76% 29.99 in 10.0 miles WSW 5.8 mph - N/A   Overcast
3:58 PM 50.4°F 44.6°F 81% 29.98 in 10.0 miles SSW 4.6 mph - N/A   Clear
4:58 PM 44.2°F 43.0°F 95% 29.98 in 10.0 miles South 5.8 mph - N/A   Partly Cloudy
5:22 PM 42.8°F 42.8°F 100% 29.96 in 10.0 miles South 5.8 mph - N/A Rain Light Rain
5:55 PM 46.4°F 44.6°F 93% 29.96 in 10.0 miles South 4.6 mph - N/A   Partly Cloudy
5:58 PM 46.0°F 44.4°F 94% 29.98 in 10.0 miles South 4.6 mph - 0.03 in   Partly Cloudy
6:23 PM 42.8°F 42.8°F 100% 29.96 in 10.0 miles SSE 3.5 mph - N/A   Mostly Cloudy
6:29 PM 42.8°F 42.8°F 100% 29.96 in 10.0 miles SSW 4.6 mph - N/A Rain Light Rain
6:49 PM 44.6°F 44.6°F 100% 29.96 in 4.0 miles West 5.8 mph - N/A Rain Light Rain
6:58 PM 44.8°F 43.2°F 94% 29.98 in 6.0 miles Variable 3.5 mph - 0.04 in Rain Light Rain
7:03 PM 44.6°F 41.0°F 87% 29.95 in 8.0 miles WSW 2.3 mph - N/A Rain Light Rain
7:07 PM 44.6°F 42.8°F 93% 29.96 in 10.0 miles SSE 2.3 mph - N/A   Overcast
7:12 PM 44.6°F 42.8°F 93% 29.96 in 10.0 miles South 2.3 mph - N/A   Overcast
7:37 PM 42.8°F 42.8°F 100% 29.95 in 10.0 miles SE 1.2 mph - N/A   Mostly Cloudy
7:58 PM 42.1°F 41.7°F 99% 29.97 in 10.0 miles Variable 3.5 mph - 0.00 in   Mostly Cloudy
8:18 PM 41.0°F 41.0°F 100% 29.95 in 10.0 miles South 4.6 mph - N/A   Overcast
8:43 PM 41.0°F 41.0°F 100% 29.95 in 2.0 miles South 3.5 mph - N/A   Mostly Cloudy
8:48 PM 41.0°F 41.0°F 100% 29.95 in 1.0 miles South 4.6 mph - N/A   Mostly Cloudy
8:53 PM 41.0°F 39.2°F 93% 29.94 in 0.8 miles South 4.6 mph - N/A   Mostly Cloudy
8:58 PM 39.7°F 39.4°F 99% 29.96 in 1.0 miles SSW 2.3 mph - N/A   Mostly Cloudy
9:03 PM 39.2°F 39.2°F 100% 29.94 in 2.5 miles SSW 2.3 mph - N/A   Mostly Cloudy
9:08 PM 37.4°F 37.4°F 100% 29.94 in 2.0 miles South 4.6 mph - N/A   Scattered Clouds
9:13 PM 35.6°F 35.6°F 100% 29.94 in 0.8 miles SSE 4.6 mph - N/A   Mist
9:18 PM 37.4°F 35.6°F 93% 29.94 in 0.5 miles ESE 2.3 mph - N/A Fog Fog
9:28 PM 39.2°F 37.4°F 93% 29.94 in 0.5 miles Calm Calm - N/A Fog Fog
9:33 PM 39.2°F 37.4°F 93% 29.94 in 0.5 miles Calm Calm - N/A Fog Fog
9:38 PM 39.2°F 37.4°F 93% 29.94 in 0.5 miles Calm Calm - N/A Fog Fog
9:48 PM 37.4°F 37.4°F 100% 29.95 in 0.2 miles Calm Calm - N/A Fog Fog
9:58 PM 36.5°F 36.3°F 99% 29.96 in 0.2 miles SSE 2.3 mph - N/A Fog Fog
10:03 PM 35.6°F 35.6°F 100% 29.94 in 0.5 miles SSE 3.5 mph - N/A Fog Fog
10:08 PM 33.8°F 33.8°F 100% 29.94 in 0.8 miles South 4.6 mph - N/A   Clear
10:13 PM 32.0°F 32.0°F 100% 29.94 in 0.8 miles SE 3.5 mph - N/A   Clear
10:23 PM 33.8°F 32.0°F 93% 29.94 in 0.5 miles ESE 3.5 mph - N/A Fog Fog
10:33 PM 32.0°F 32.0°F 100% 29.94 in 0.5 miles ESE 3.5 mph - N/A Fog Fog
10:38 PM 32.0°F 32.0°F 100% 29.94 in 0.5 miles East 2.3 mph - N/A Fog Fog
10:58 PM 33.8°F 33.4°F 99% 29.96 in 0.5 miles ESE 3.5 mph - N/A Fog Fog
11:03 PM 32.0°F 32.0°F 100% 29.94 in 0.5 miles ESE 2.3 mph - N/A Fog Fog
11:13 PM 32.0°F 32.0°F 100% 29.94 in 0.5 miles South 1.2 mph - N/A Fog Fog
11:23 PM 32.0°F 32.0°F 100% 29.94 in 0.8 miles South 2.3 mph - N/A   Mostly Cloudy
11:28 PM 32.0°F 32.0°F 100% 29.94 in 1.2 miles South 2.3 mph - N/A   Mostly Cloudy
11:43 PM 32.0°F 32.0°F 100% 29.94 in 3.0 miles SSE 3.5 mph - N/A   Overcast
11:58 PM 33.1°F 32.9°F 99% 29.95 in 8.0 miles SE 2.3 mph - N/A   Scattered Clouds
Moon Phase
Jan. 25 Jan. 26 Feb. 03 Feb. 10 Feb. 17
Sunrise:07:42 AM (PST) Moon Rise:04:05 PM (PST)1/25
Sunset:05:02 PM (PST) Moon Set:06:26 AM (PST)1/25

Copyright © 2014 The Weather Underground, Inc.